Temperature
12 13 13 13 10 8 10 10 11 12 13 15 15 16 16 17 18 18 19 19 19 19 18 17 17 17 17 17 17 17 17 17 17 16 16 17 17 17 17 17 17 16 16 16 16 16 16 16 16
12 12 13 12 9 9 10 9 10 12 14 15 16 16 16 17 18 18 18 19 19 18 18 17 17 17 17 17 17 17 16 16 16 16 16 16 16 16 17 17 16 16 16 16 16 16 16 16 16
11 12 12 8 8 9 11 11 11 12 14 14 15 16 16 16 17 17 18 18 18 18 18 17 17 17 16 16 16 16 16 16 16 16 16 16 16 16 16 16 16 16 16 16 16 16 16 16 16
11 12 11 8 9 8 10 11 11 11 13 14 14 15 16 16 16 16 17 17 18 18 17 17 17 16 16 16 16 16 16 16 16 16 16 16 16 16 16 16 16 16 16 16 16 16 16 16 16
11 11 8 7 8 8 9 10 11 11 12 13 13 13 15 15 16 16 17 17 17 17 17 17 16 16 16 16 16 16 16 16 16 16 16 16 16 16 16 16 16 16 16 16 16 16 16 16 16
10 8 7 7 7 8 9 11 11 11 11 12 13 13 15 15 16 16 16 16 16 16 16 16 16 16 16 16 16 16 16 16 16 16 15 16 16 16 16 16 16 16 16 16 16 16 16 16 16
9 6 7 7 7 8 10 11 11 10 10 12 13 13 14 15 15 15 15 15 16 16 16 16 16 16 16 16 16 16 16 16 16 15 15 15 15 15 15 16 16 16 16 16 16 16 16 16 16
9 6 6 6 7 8 9 10 10 10 10 12 12 12 13 14 14 14 15 15 15 15 15 15 15 15 15 15 15 15 15 15 15 15 15 15 15 15 15 16 16 16 16 16 16 16 16 16 16
9 5 5 6 7 8 8 9 10 10 10 11 11 12 12 13 13 14 14 15 15 15 15 15 15 15 15 15 15 15 15 15 15 15 15 15 15 15 15 15 16 16 16 16 16 16 16 15 15
7 5 6 7 7 8 8 8 9 9 9 10 11 12 12 12 13 13 13 14 14 15 15 15 15 15 15 15 15 15 15 15 15 15 15 15 15 15 15 15 15 16 16 16 16 15 15 15 15
6 5 6 7 8 8 7 8 8 8 7 9 10 11 11 12 12 12 13 13 14 14 14 14 14 14 15 15 15 15 15 15 15 15 15 14 14 15 15 15 15 15 15 15 15 15 15 15 15
6 6 6 7 7 7 7 7 8 8 8 10 10 10 10 11 11 12 12 13 13 13 14 14 14 14 14 14 15 15 14 14 14 15 14 14 14 14 15 15 15 15 15 15 15 15 15 15 15
6 6 6 7 7 7 7 7 7 7 9 9 9 9 10 10 11 11 12 12 13 13 13 14 14 14 14 14 14 14 14 14 14 14 14 14 14 14 15 15 15 15 15 15 15 15 15 15 15
5 5 6 6 7 7 6 7 7 8 9 9 9 9 10 10 11 11 11 12 12 13 13 13 13 14 14 14 14 14 14 14 14 14 14 14 14 14 14 15 15 15 15 15 15 15 15 15 15
5 5 5 6 6 7 6 6 6 9 9 8 9 9 9 10 10 10 11 11 12 12 13 13 13 13 13 14 14 14 14 14 14 14 14 14 14 14 14 14 14 15 15 15 15 15 15 15 15
5 4 4 5 6 7 6 5 7 8 8 8 8 9 9 9 10 10 10 11 11 12 12 13 13 13 13 13 13 14 13 13 14 14 14 14 14 14 14 14 14 14 14 14 14 14 14 14 14
4 3 4 5 6 6 6 5 6 8 8 7 8 8 8 9 9 10 10 11 11 11 12 12 13 13 13 13 13 13 13 13 13 13 13 13 13 13 13 14 14 14 14 14 14 14 14 14 14
4 4 4 4 6 6 5 5 6 7 7 7 7 7 8 8 9 9 10 10 11 11 11 12 12 12 12 12 13 13 13 13 13 13 13 13 13 13 13 13 13 13 13 13 14 14 14 14 14
4 4 4 4 5 5 5 5 6 7 7 6 7 7 7 8 8 9 9 10 10 11 11 11 12 12 12 12 12 12 13 13 13 13 13 13 12 12 13 13 13 13 13 13 14 14 14 13 13
4 4 4 5 6 6 5 6 6 7 6 6 6 6 6 7 7 8 9 9 10 10 11 11 11 11 11 12 12 12 12 12 13 12 12 12 12 12 12 12 12 13 12 12 13 13 13 13 13
4 4 4 5 5 6 5 6 6 6 6 6 6 6 6 6 7 7 8 9 9 9 10 10 10 11 11 11 11 11 11 11 12 12 12 12 12 12 12 12 12 12 12 12 12 12 13 13 13
5 5 5 5 5 5 5 5 6 6 6 6 6 5 5 5 6 7 7 8 9 9 9 10 10 10 10 11 11 11 11 11 12 12 12 12 11 12 12 12 12 12 12 12 12 12 12 13 13
5 6 6 6 5 5 5 5 5 6 6 6 6 5 5 5 6 6 7 7 8 9 9 9 10 10 10 10 10 10 10 11 11 11 11 11 11 11 11 11 11 11 12 12 12 12 12 12 12
6 6 6 5 5 5 5 5 5 5 5 6 5 5 4 4 5 5 6 7 7 8 9 9 9 9 9 10 10 10 10 10 10 10 10 11 11 11 11 11 11 11 11 11 12 12 12 12 12
6 5 5 5 5 5 5 5 5 5 5 5 5 4 4 4 4 5 5 6 7 7 7 8 8 9 9 9 9 9 10 10 10 10 10 10 10 10 11 11 11 11 11 11 11 11 11 11 11
6 5 5 5 5 5 6 5 5 6 5 5 4 4 3 4 4 4 4 5 6 6 7 7 8 8 8 9 9 9 9 9 9 9 9 10 10 10 10 10 10 10 10 10 11 11 11 11 11
6 5 6 5 5 5 5 5 6 6 5 5 4 3 3 3 3 3 4 5 5 5 6 7 7 7 8 8 8 8 8 8 9 9 9 9 9 9 10 10 10 10 10 10 10 10 10 10 10
6 6 5 5 6 6 6 6 6 5 5 4 4 3 3 3 3 3 4 4 4 5 5 6 6 7 7 7 7 7 8 8 8 8 8 8 9 9 9 9 9 9 9 9 9 9 10 10 10
6 6 6 5 6 6 6 6 6 5 5 4 3 3 3 3 3 3 3 4 4 5 5 5 6 6 6 6 6 7 7 7 7 7 8 8 8 8 8 8 8 9 9 9 9 9 9 9 9
6 6 6 6 6 5 5 6 5 4 4 4 3 3 3 3 3 3 3 4 4 4 5 5 5 5 5 6 6 6 6 7 7 7 7 7 7 7 7 8 8 8 8 8 8 8 8 8 8
Wind_Speed
8 5 3 4 5 3 4 6 4 3 3 2 3 4 5 5 5 5 4 1 2 5 10 15 18 18 17 17 17 16 16 17 17 18 18 18 18 18 19 19 18 18 18 18 19 19 19 19 18
4 3 5 5 5 3 6 6 6 5 3 6 5 3 3 6 4 6 4 4 2 6 10 13 17 17 17 17 17 16 16 17 17 17 18 18 18 18 19 18 18 18 18 18 19 19 19 18 17
2 4 5 5 5 7 6 4 4 5 6 4 5 4 3 5 6 6 6 5 1 5 9 12 17 17 17 17 17 17 16 17 17 17 17 18 18 18 19 19 18 18 18 18 19 19 18 17 16
3 5 5 3 6 6 5 2 1 5 6 4 3 7 6 2 5 6 8 2 2 4 6 10 16 16 17 17 17 17 17 17 17 17 17 18 19 19 19 19 17 18 18 18 18 18 17 16 14
4 5 4 1 5 5 5 4 2 2 5 4 4 6 5 4 7 8 8 3 1 2 4 8 14 15 16 16 16 17 17 17 17 17 18 19 19 19 19 18 18 18 18 18 18 18 16 15 14
5 5 4 4 5 5 5 4 3 2 3 4 4 4 4 4 9 10 8 5 2 1 2 6 12 14 15 16 16 17 17 17 17 18 18 19 19 19 19 19 19 19 18 18 18 17 16 15 14
5 4 4 4 3 4 3 3 1 3 4 4 3 4 6 6 9 9 7 5 3 1 1 3 8 11 14 14 15 16 17 17 17 18 18 19 20 20 20 20 20 19 19 18 18 17 16 15 14
4 5 3 3 4 4 3 4 2 2 5 5 2 3 5 7 9 9 7 5 4 2 2 3 4 7 9 11 14 15 16 17 17 18 18 18 20 21 21 21 20 20 19 18 18 17 16 14 13
4 4 4 5 5 3 3 4 5 4 4 5 4 4 5 8 9 9 8 7 5 4 3 3 3 4 7 9 11 13 14 15 16 16 17 17 16 18 19 20 20 20 19 18 18 17 15 13 12
4 4 6 4 2 2 4 4 6 6 7 6 7 7 7 8 7 8 8 8 7 7 6 3 4 4 5 7 7 9 10 11 12 12 14 14 14 15 16 18 20 19 18 18 17 16 14 12 10
3 4 3 3 3 3 5 6 4 5 8 8 9 10 10 9 9 8 9 8 8 7 6 5 4 4 5 4 5 5 6 8 10 12 13 13 12 13 13 13 14 15 15 13 14 13 11 10 9
2 2 3 3 3 4 5 5 6 9 12 10 10 10 10 12 11 10 10 10 9 8 7 6 5 5 5 5 4 5 4 5 6 11 14 12 7 7 9 9 11 11 11 10 9 8 9 9 8
1 3 3 6 8 8 8 10 8 12 15 12 12 12 12 13 13 11 10 10 9 9 9 8 6 6 5 5 5 5 5 5 6 9 13 13 8 9 8 7 9 10 11 10 7 7 7 6 6
1 4 6 7 8 5 7 10 6 12 10 10 11 12 12 13 13 11 10 10 10 10 9 8 8 7 6 6 5 5 6 6 7 8 12 15 11 8 8 8 8 9 11 10 8 7 6 4 4
2 5 7 5 5 4 4 9 7 10 8 11 13 13 13 12 11 11 11 10 10 10 9 9 9 8 8 8 7 5 5 6 6 7 12 14 13 11 9 9 9 8 11 10 7 6 5 4 4
2 3 5 5 4 3 1 10 8 7 8 11 12 12 11 11 10 10 10 10 10 9 9 10 9 9 9 8 7 5 4 5 6 8 10 13 14 13 9 9 9 10 10 8 6 5 5 5 4
3 2 4 7 4 2 2 10 10 9 9 12 12 11 10 10 10 9 9 9 9 9 9 9 9 9 9 8 6 5 5 5 5 7 8 11 13 14 10 9 8 10 8 7 8 6 5 5 5
2 2 4 6 5 4 7 13 15 11 8 10 11 10 10 10 11 9 8 8 8 8 7 8 8 8 7 6 5 4 5 5 5 6 7 10 11 13 11 8 8 9 8 8 8 7 5 4 5
1 4 8 8 7 6 9 14 15 11 8 9 9 9 10 10 9 7 7 6 5 4 5 6 7 7 6 5 5 5 6 6 6 6 7 9 10 12 10 9 9 10 10 10 10 7 6 5 4
5 7 8 8 5 5 8 12 11 7 7 8 8 9 9 9 9 7 6 5 4 3 3 4 6 6 6 5 4 3 3 4 5 5 6 8 10 11 10 11 10 11 10 10 10 7 5 4 6
6 7 7 7 7 4 6 7 5 6 6 8 8 8 9 9 9 7 7 5 3 3 2 2 2 3 4 4 3 2 2 1 3 5 6 7 9 10 10 11 11 11 11 10 11 10 9 6 6
6 6 8 8 6 4 3 5 6 8 9 11 12 11 11 11 9 8 7 6 4 4 3 2 2 1 1 2 3 4 4 4 4 4 5 6 7 9 9 10 11 10 10 10 10 10 7 7 7
6 4 5 6 4 4 2 2 6 7 9 12 12 12 12 11 10 10 9 7 6 5 4 4 4 4 4 2 1 2 2 2 2 2 4 6 6 7 8 9 10 10 10 10 10 9 9 7 7
4 3 3 2 1 2 3 1 5 6 9 11 11 12 12 12 12 11 11 10 9 8 7 7 6 6 5 4 3 1 1 0 1 2 3 3 4 5 6 8 8 9 9 9 9 10 10 9 8
1 1 2 3 2 3 2 1 3 6 7 7 8 10 11 12 12 13 13 13 12 12 11 9 8 8 8 7 6 4 2 1 1 1 2 2 2 2 4 5 6 7 8 9 9 10 10 10 9
2 2 2 1 2 4 2 2 3 4 5 6 7 8 11 12 12 12 12 12 12 13 11 10 10 10 10 9 8 8 6 4 3 3 2 1 1 1 1 3 5 6 6 6 7 7 8 8 9
1 2 2 2 1 2 3 4 3 2 5 7 8 9 10 10 11 12 12 13 13 13 13 12 12 12 11 10 9 10 9 8 7 7 6 4 4 3 2 1 2 3 4 5 5 5 6 6 7
2 2 1 1 0 2 3 2 3 4 4 5 7 7 8 9 10 11 11 12 12 12 12 13 13 12 13 13 11 10 11 10 9 9 9 8 8 6 5 4 2 1 2 3 3 4 4 6 6
1 1 1 1 1 1 2 3 1 1 1 2 4 5 6 7 8 9 9 10 10 11 12 12 12 12 12 12 12 12 11 11 12 11 11 10 10 10 8 6 5 3 1 1 2 2 3 5 6
3 2 2 1 2 1 2 3 1 2 2 2 2 3 4 6 6 7 8 9 10 11 11 11 11 11 11 11 11 11 11 12 12 12 12 11 11 11 10 9 8 7 5 2 1 3 3 5 6
Wind_Direction
351 357 56 58 63 66 228 235 223 240 232 260 269 246 232 230 218 249 307 182 228 170 173 175 170 169 168 167 164 161 160 158 157 156 154 153 153 151 151 151 150 147 142 138 134 131 128 123 120
347 22 57 67 106 173 248 235 225 233 272 310 304 279 260 261 273 293 325 299 243 172 170 174 172 172 171 170 168 167 167 165 164 163 161 159 158 156 156 155 153 150 145 140 136 133 130 128 126
21 48 84 93 152 192 222 222 228 291 306 319 325 321 286 287 317 312 310 296 185 169 170 175 175 176 175 174 173 174 174 173 172 171 169 166 164 162 161 159 157 153 147 143 140 138 136 135 132
66 52 61 103 208 223 226 230 310 328 331 343 349 312 299 313 321 312 318 317 150 168 171 180 179 179 178 178 179 180 181 180 180 178 175 172 170 169 166 162 159 153 150 148 146 144 142 140 137
56 80 94 186 234 248 252 261 258 314 313 320 340 303 293 329 332 335 343 357 144 179 176 186 184 184 183 182 183 186 188 187 185 183 181 178 176 174 170 165 160 156 154 153 152 150 148 145 142
59 73 123 217 240 263 270 275 299 306 294 310 322 295 269 339 355 346 349 352 355 225 198 194 195 192 190 188 189 191 193 192 190 188 187 184 181 177 172 167 163 162 160 159 158 156 154 151 148
106 113 173 203 239 261 266 301 247 293 295 285 283 281 288 338 342 337 343 349 349 316 240 221 202 200 198 196 196 197 197 195 194 192 191 188 184 179 174 169 168 168 167 164 163 161 160 157 152
113 111 148 213 221 245 319 346 359 314 275 283 275 257 289 313 326 337 342 349 343 324 266 251 222 204 203 202 204 203 203 202 198 195 193 191 185 180 175 172 172 172 171 169 167 167 166 161 157
82 94 196 213 211 250 343 348 320 300 279 295 280 256 277 310 332 343 341 339 334 314 289 256 231 214 206 204 208 207 206 206 202 197 194 189 184 178 175 174 175 174 174 173 172 172 170 163 161
93 167 217 219 209 270 312 306 305 313 303 290 288 285 296 313 326 324 315 310 307 301 296 283 247 227 211 212 206 206 206 203 200 195 189 182 176 174 172 175 175 176 176 176 177 176 171 163 160
138 192 231 261 259 280 295 292 278 270 272 255 268 287 298 302 304 297 287 280 276 278 282 279 260 237 220 214 201 203 204 197 194 189 182 175 169 168 166 170 175 176 176 176 180 177 172 167 166
158 235 244 274 285 283 273 276 271 240 249 256 262 272 282 285 283 277 275 275 273 269 266 268 258 239 224 212 205 199 198 196 194 188 181 173 170 170 168 171 173 175 178 176 176 173 173 174 177
217 286 282 272 279 265 262 256 261 260 262 269 273 271 266 268 270 267 259 262 265 260 255 251 247 234 224 213 207 201 201 200 197 189 184 179 178 179 176 174 176 179 179 180 179 178 178 180 183
277 286 290 281 273 268 263 270 257 267 271 277 275 271 266 262 263 267 267 261 257 252 249 244 238 228 217 213 207 207 202 196 192 191 190 186 183 181 181 178 181 184 184 185 185 183 181 185 186
331 319 312 287 275 275 289 291 241 265 286 282 279 277 274 268 263 258 259 258 254 250 246 239 233 224 214 213 210 207 202 192 191 194 194 190 187 186 185 185 187 188 185 182 179 179 177 187 196
13 358 321 304 301 287 309 284 278 285 294 288 287 285 281 276 268 263 260 258 256 251 243 237 231 217 213 212 208 200 200 201 199 197 195 193 192 190 188 190 191 184 181 182 182 181 186 199 201
25 340 299 303 291 295 267 276 290 303 296 290 290 288 285 285 282 274 267 261 257 248 242 235 226 215 211 213 209 202 200 208 206 198 197 197 195 194 193 194 189 180 182 187 192 188 186 194 200
270 288 290 286 293 299 282 277 293 303 297 293 295 293 291 290 287 286 285 275 263 251 242 237 226 216 204 206 205 205 209 212 207 204 204 199 200 199 197 195 186 184 188 193 192 187 188 190 183
224 273 284 274 274 286 277 285 295 304 311 309 309 308 306 299 292 293 294 293 286 267 243 231 219 213 195 194 198 204 210 206 206 208 205 203 204 203 200 200 190 190 196 199 194 186 187 191 158
248 277 282 287 286 282 285 290 293 305 314 315 320 321 319 320 322 323 322 316 299 281 263 238 219 208 198 200 196 194 179 195 204 206 206 206 206 206 203 200 197 194 197 197 194 183 183 185 172
246 243 261 278 310 292 299 306 320 335 340 346 348 342 341 335 331 337 335 325 325 319 298 253 220 205 195 198 188 173 157 168 199 204 210 212 209 207 205 202 199 198 195 198 197 194 187 188 192
263 238 246 276 306 311 343 312 317 336 346 359 358 358 356 352 351 355 351 349 347 338 353 32 55 69 143 172 180 182 192 211 221 212 210 208 204 203 205 203 199 198 198 197 197 197 197 185 192
236 261 261 269 273 291 304 274 306 338 350 356 357 359 359 1 5 5 5 8 13 14 25 36 47 45 39 65 148 177 213 232 238 212 208 211 209 203 202 201 200 198 199 199 197 195 198 198 196
243 299 285 269 269 300 302 272 316 346 339 344 356 1 1 5 14 17 17 21 27 29 32 38 45 39 34 42 52 86 189 247 236 230 220 218 222 209 204 202 202 201 199 198 199 200 202 206 203
177 30 2 357 357 280 305 292 292 325 339 353 359 4 8 15 20 20 23 23 25 29 30 33 41 39 32 35 34 30 23 27 328 262 238 216 227 223 212 205 204 204 205 200 196 201 205 206 206
202 172 169 232 277 301 330 295 293 335 2 21 21 17 17 20 19 20 22 25 27 27 27 32 40 37 32 33 32 30 28 34 27 23 13 8 287 260 244 219 210 205 202 198 197 206 209 207 212
168 214 195 164 248 289 302 298 301 7 22 31 26 24 22 19 21 20 22 27 27 26 27 31 38 38 34 32 34 32 30 33 33 30 27 24 19 12 7 328 214 198 196 195 194 210 213 211 215
196 191 147 165 266 308 310 305 312 332 356 20 24 19 17 20 23 23 24 27 27 26 28 34 39 40 38 37 36 36 32 31 31 32 28 26 20 16 20 20 5 202 187 192 201 215 217 216 221
215 226 209 178 215 206 305 294 277 260 22 41 26 16 20 23 23 23 24 25 26 28 30 34 35 38 38 36 35 35 33 34 35 35 28 25 24 23 19 13 13 5 334 226 221 238 238 231 229
188 210 183 200 262 199 224 277 24 111 102 89 57 28 29 31 27 22 23 26 28 29 28 29 30 33 32 33 36 35 33 34 34 30 24 23 25 22 19 18 17 15 7 352 273 251 247 244 243
Height
1498 1500 1503 1506 1511 1521 1520 1515 1510 1508 1506 1504 1504 1504 1502 1502 1503 1504 1497 1494 1493 1493 1493 1495 1498 1500 1503 1505 1507 1510 1512 1514 1516 1518 1520 1521 1523 1525 1526 1527 1529 1530 1532 1533 1534 1536 1537 1538 1540
1498 1501 1505 1506 1516 1524 1519 1512 1508 1505 1504 1503 1502 1501 1500 1499 1498 1497 1494 1493 1493 1493 1494 1495 1498 1500 1503 1505 1507 1510 1512 1514 1516 1518 1519 1521 1523 1524 1526 1527 1529 1531 1532 1534 1535 1536 1538 1539 1541
1499 1501 1504 1508 1516 1518 1511 1506 1505 1504 1503 1502 1501 1500 1500 1498 1497 1496 1495 1494 1493 1493 1494 1495 1498 1500 1502 1505 1507 1509 1511 1513 1515 1517 1519 1521 1522 1524 1526 1527 1529 1531 1532 1534 1536 1537 1539 1540 1541
1500 1503 1505 1512 1513 1511 1507 1504 1504 1503 1501 1501 1501 1500 1499 1499 1497 1496 1494 1494 1493 1494 1494 1495 1497 1500 1502 1504 1506 1508 1510 1512 1514 1516 1518 1520 1522 1524 1525 1527 1529 1531 1532 1534 1536 1538 1539 1541 1542
1500 1502 1509 1514 1511 1508 1504 1502 1502 1503 1502 1501 1501 1499 1497 1497 1495 1494 1493 1493 1493 1494 1494 1496 1497 1499 1501 1503 1505 1507 1509 1511 1513 1515 1517 1519 1521 1523 1525 1527 1529 1530 1532 1534 1536 1538 1540 1541 1542
1500 1503 1513 1514 1510 1506 1503 1501 1501 1501 1501 1500 1500 1498 1496 1496 1494 1493 1493 1493 1493 1494 1495 1495 1497 1499 1500 1502 1504 1506 1508 1509 1511 1513 1516 1518 1520 1522 1524 1526 1528 1530 1532 1534 1536 1538 1540 1541 1543
1501 1506 1510 1510 1509 1506 1502 1501 1501 1500 1500 1500 1499 1497 1494 1494 1493 1492 1492 1492 1493 1493 1494 1495 1496 1497 1499 1501 1503 1504 1506 1508 1510 1512 1514 1516 1518 1521 1522 1525 1527 1529 1532 1534 1536 1538 1540 1541 1543
1500 1506 1509 1510 1509 1505 1502 1501 1500 1500 1499 1498 1498 1496 1493 1493 1492 1491 1491 1491 1492 1492 1493 1494 1495 1496 1497 1499 1501 1502 1504 1506 1508 1510 1512 1514 1517 1519 1521 1523 1526 1528 1531 1533 1535 1537 1539 1541 1543
1501 1509 1511 1509 1507 1504 1502 1501 1500 1499 1498 1496 1496 1495 1493 1492 1490 1490 1489 1489 1490 1490 1491 1492 1493 1494 1495 1496 1498 1500 1502 1504 1506 1507 1510 1512 1514 1517 1519 1522 1525 1527 1530 1532 1534 1537 1539 1540 1542
1502 1509 1507 1504 1503 1503 1502 1501 1500 1498 1496 1494 1492 1492 1491 1490 1489 1488 1487 1487 1487 1488 1489 1489 1490 1491 1492 1494 1495 1497 1499 1501 1503 1505 1507 1509 1512 1514 1517 1520 1523 1525 1528 1531 1533 1536 1538 1539 1541
1502 1505 1503 1502 1502 1501 1501 1499 1498 1497 1494 1491 1490 1488 1487 1486 1486 1485 1485 1484 1485 1485 1485 1486 1487 1488 1489 1490 1492 1494 1496 1498 1500 1502 1504 1507 1509 1512 1514 1517 1520 1523 1526 1529 1531 1534 1536 1538 1540
1502 1502 1502 1501 1500 1500 1499 1497 1495 1492 1489 1488 1487 1486 1484 1482 1481 1481 1481 1480 1481 1481 1481 1482 1483 1484 1485 1487 1488 1490 1492 1494 1496 1499 1501 1504 1506 1508 1511 1514 1517 1520 1523 1526 1529 1531 1534 1536 1538
1501 1501 1500 1499 1498 1497 1495 1494 1492 1486 1484 1483 1482 1481 1479 1478 1477 1476 1476 1476 1476 1477 1477 1478 1479 1480 1481 1483 1484 1486 1488 1490 1493 1495 1497 1500 1502 1505 1508 1511 1514 1517 1520 1523 1526 1529 1532 1534 1536
1500 1500 1499 1496 1495 1493 1492 1488 1489 1480 1480 1478 1477 1475 1474 1473 1472 1471 1471 1470 1471 1471 1472 1474 1475 1476 1477 1478 1480 1482 1484 1486 1489 1491 1493 1496 1499 1501 1504 1507 1510 1514 1517 1521 1524 1526 1529 1531 1533
1499 1500 1497 1494 1492 1490 1490 1486 1482 1478 1477 1474 1472 1470 1468 1467 1466 1465 1465 1465 1465 1466 1467 1469 1470 1471 1472 1474 1476 1478 1480 1482 1485 1487 1489 1492 1495 1498 1501 1504 1506 1510 1514 1517 1520 1523 1526 1528 1530
1500 1502 1501 1494 1491 1489 1493 1487 1478 1476 1474 1471 1468 1465 1463 1461 1460 1459 1459 1459 1460 1460 1461 1463 1465 1466 1468 1470 1471 1473 1475 1478 1480 1482 1485 1488 1490 1493 1496 1500 1503 1506 1510 1514 1517 1520 1522 1525 1527
1504 1506 1503 1497 1491 1489 1491 1485 1476 1474 1472 1468 1464 1461 1458 1456 1455 1454 1454 1454 1454 1454 1455 1457 1459 1461 1463 1465 1467 1469 1471 1473 1476 1478 1481 1483 1486 1489 1492 1495 1498 1502 1505 1509 1513 1515 1518 1521 1523
1505 1506 1503 1499 1491 1489 1489 1482 1474 1471 1469 1465 1461 1457 1454 1452 1450 1449 1449 1448 1448 1449 1450 1451 1453 1455 1458 1460 1462 1464 1466 1468 1471 1473 1476 1479 1481 1484 1487 1490 1493 1497 1500 1504 1508 1511 1514 1517 1520
1503 1503 1502 1496 1490 1489 1484 1478 1472 1467 1465 1461 1458 1454 1451 1448 1446 1445 1444 1443 1443 1443 1444 1445 1447 1450 1453 1455 1457 1459 1461 1463 1466 1469 1471 1474 1476 1479 1482 1485 1488 1492 1495 1499 1503 1506 1510 1512 1515
1502 1502 1499 1492 1487 1485 1481 1475 1469 1465 1463 1460 1456 1453 1449 1446 1443 1441 1440 1439 1439 1439 1440 1441 1443 1446 1448 1450 1452 1454 1457 1459 1462 1464 1466 1469 1471 1474 1476 1480 1483 1486 1490 1493 1497 1500 1504 1507 1510
1499 1499 1496 1493 1487 1482 1481 1474 1468 1464 1462 1459 1455 1452 1449 1445 1441 1439 1438 1437 1437 1437 1437 1438 1440 1442 1444 1446 1448 1450 1452 1454 1457 1459 1461 1463 1466 1469 1472 1475 1477 1481 1484 1487 1491 1494 1498 1501 1505
1495 1491 1491 1489 1490 1487 1484 1481 1471 1467 1462 1458 1455 1452 1448 1445 1441 1439 1437 1436 1435 1435 1435 1436 1437 1438 1440 1442 1444 1446 1448 1450 1452 1454 1456 1458 1461 1463 1466 1469 1472 1475 1478 1481 1485 1489 1492 1496 1498
1491 1487 1487 1486 1487 1487 1484 1483 1476 1468 1463 1461 1458 1454 1450 1446 1443 1440 1437 1436 1435 1434 1434 1435 1436 1437 1438 1439 1441 1443 1445 1447 1449 1450 1452 1453 1455 1457 1460 1463 1466 1469 1472 1475 1479 1482 1486 1489 1492
1486 1487 1486 1486 1487 1487 1482 1483 1479 1473 1469 1464 1460 1457 1453 1449 1445 1442 1439 1437 1435 1435 1434 1435 1436 1436 1437 1438 1439 1441 1442 1444 1445 1446 1448 1449 1450 1452 1454 1457 1460 1463 1466 1469 1472 1476 1479 1482 1486
1487 1490 1493 1490 1491 1487 1481 1481 1479 1473 1470 1467 1464 1460 1456 1452 1449 1445 1442 1440 1438 1437 1436 1436 1436 1436 1437 1437 1438 1440 1441 1441 1442 1443 1444 1445 1446 1447 1449 1451 1454 1457 1460 1463 1466 1469 1472 1475 1478
1485 1488 1492 1491 1489 1486 1480 1479 1477 1473 1470 1468 1466 1464 1460 1456 1453 1449 1446 1443 1441 1440 1439 1438 1438 1438 1438 1438 1438 1439 1439 1440 1440 1441 1441 1442 1443 1444 1445 1447 1449 1451 1454 1457 1460 1463 1466 1469 1471
1484 1486 1486 1489 1488 1486 1483 1479 1474 1472 1471 1470 1468 1466 1463 1460 1457 1454 1450 1447 1445 1444 1442 1441 1440 1440 1440 1440 1440 1440 1440 1440 1439 1439 1439 1439 1440 1441 1442 1443 1445 1447 1449 1451 1454 1457 1460 1462 1465
1483 1483 1486 1486 1483 1480 1479 1478 1476 1473 1472 1471 1470 1469 1467 1464 1461 1458 1455 1453 1451 1449 1447 1445 1444 1443 1443 1443 1442 1442 1441 1440 1440 1440 1439 1439 1439 1440 1440 1440 1441 1442 1444 1446 1449 1452 1454 1456 1458
1483 1483 1483 1485 1484 1483 1481 1479 1473 1473 1473 1473 1473 1471 1470 1467 1465 1462 1460 1458 1455 1453 1451 1449 1448 1447 1446 1445 1444 1443 1442 1442 1441 1440 1440 1440 1439 1439 1439 1439 1439 1439 1440 1442 1444 1446 1448 1450 1452
1480 1481 1483 1483 1483 1485 1484 1482 1473 1473 1473 1474 1474 1473 1472 1470 1468 1466 1464 1462 1459 1457 1455 1454 1452 1451 1449 1448 1447 1446 1444 1443 1442 1441 1441 1440 1439 1439 1438 1438 1437 1437 1437 1438 1439 1441 1443 1444 1446